Location: Caltech
(34.1382°N, 118.1253°W)
Time: 14:23:38
(UTC-07:00)

Cosmos 44 Rocket - Visible Passes

Search period start: 17 April 2014 00:00
Search period end: 27 April 2014 00:00
Orbit: 643 x 750 km, 65.1° (Epoch: 17 April)

Date Brightness Start Highest point End Pass type
(mag) Time Alt. Az. Time Alt. Az. Time Alt. Az.
23 Apr 6.4 00:11:59 10° N 00:12:08 11° N 00:12:08 11° N visible
24 Apr 6.2 23:54:56 10° NNW 23:55:31 13° N 23:55:31 13° N visible
25 Apr 5.9 22:56:57 10° N 22:57:54 13° NNE 22:57:54 13° NNE visible
26 Apr 6.0 23:37:58 10° NNW 23:39:02 16° NNW 23:39:02 16° NNW visible
